#timestamp,LO_Frequency,Hit,StdDev 
1529503215.3,286047000.7,N
1529503235.1,286047000.5,N
1529503255.9,286047002.4,N
1529503275.7,286047000.5,N
1529503295.2,286047000.7,N
1529503315.0,286047000.3,N
1529503315.9,286047000.3,N
1529503335.8,286046998.2,N
1529503355.6,286047000.5,N
1529503375.4,286047000.9,N
1529503395.3,286047000.7,N
1529503415.1,286047000.4,N
1529503416.0,286047000.4,N
1529503435.8,286047001.0,N
1529503455.7,286047001.0,N
1529503475.5,286047000.0,N
1529503495.3,286047000.9,N
1529503515.2,286047000.1,N
1529503535.0,286047000.3,N
1529503535.9,286047000.3,N
1529503555.8,286047000.7,N
1529503575.6,286047000.4,N
1529503595.4,286046998.8,N
1529503615.3,286047001.2,N
1529503635.1,286047000.7,N
1529503655.9,286047002.8,Y
1529503675.7,286046998.2,P
1529503695.5,286046998.7,N
1529503715.4,286046998.5,N
1529503735.2,286046998.8,N
1529503755.0,286047000.7,N
1529503755.9,286047000.7,N
1529503775.8,286047000.8,N
1529503795.6,286047000.8,N
1529503815.4,286047001.1,N
1529503835.3,286047001.1,N
1529503855.1,286047000.4,N
1529503875.9,286046998.1,N
1529503895.7,286047000.4,N
1529503915.5,286047000.9,N
1529503935.4,286047000.5,N
1529503955.2,286047000.9,N
1529503975.0,286046999.9,N
1529503995.1,286046999.7,N
1529504015.9,286046998.5,N
1529504035.7,286046999.0,N
1529504085.5,286046999.6,E
1529504095.5,286047001.1,N
1529504115.3,286047000.1,P
1529504135.1,286047000.5,N
1529504155.9,286047000.0,N
1529504175.7,286046999.7,N
1529504195.6,286047001.6,Y
1529504215.4,286047002.0,P
1529504235.2,286047002.1,N
1529504255.1,286047000.0,N
1529504256.0,286047000.0,N
1529504275.8,286047001.1,N
1529504295.7,286046998.6,N
1529504315.5,286046998.5,N
1529504335.3,286047000.6,N
1529504355.2,286047000.5,N
1529504375.0,286046998.7,N
1529504375.9,286046998.7,N
1529504395.8,286046998.3,N
1529504415.6,286047000.7,N
1529504435.4,286047000.0,N
1529504455.3,286047000.5,N
1529504475.1,286047002.5,N
1529504495.8,286047001.6,N
1529504515.7,286047001.5,N
1529504535.5,286047002.1,N
1529504555.4,286047000.2,N
1529504575.2,286046999.9,N
1529504595.0,286046999.7,N
1529504596.0,286046999.7,N
1529504615.8,286047002.8,N
1529504635.6,286047002.4,N
1529504655.5,286047001.8,N
1529504675.3,286047004.0,Y
1529504695.1,286047002.0,P
1529504715.9,286047002.4,P
1529504735.7,286047002.6,P
1529504755.6,286047001.9,N
1529504775.4,286047001.9,N
1529504795.2,286047001.6,N
1529504815.1,286047002.2,Y
1529504816.0,286047002.2,P
1529504835.8,286047000.0,N
1529504855.7,286047000.6,N
1529504875.5,286047000.6,N
1529504895.3,286047000.6,N
1529504915.2,286047000.6,N
1529504935.0,286047000.8,N
1529504935.9,286047000.8,N
1529504955.7,286047000.8,N
1529504975.6,286046999.4,N
1529504995.4,286047001.1,N
1529505015.3,286046999.4,N
1529505035.1,286046998.4,N
1529505055.8,286046998.7,N
1529505075.7,286046998.3,N
1529505095.5,286046999.2,N
1529505115.4,286046999.6,N
1529505135.2,286046996.6,Y
1529505155.0,286046999.4,P
1529505155.9,286046999.4,N
1529505175.8,286046998.6,P
1529505195.6,286046998.3,Y
1529505215.5,286047002.3,P
1529505235.3,286047000.0,N
1529505255.1,286046999.7,N
1529505275.9,286046999.9,N
1529505295.7,286047002.7,N
1529505315.5,286047001.9,N
1529505335.4,286047002.1,N
1529505355.2,286047001.6,N
1529505375.0,286047001.8,N
1529505376.0,286047001.8,N
1529505395.8,286047002.0,N
1529505415.6,286047001.4,N
1529505435.5,286047002.0,N
1529505455.3,286047002.0,N
1529505475.1,286047002.5,N
1529505495.9,286047002.6,N
1529505515.7,286047002.7,N
1529505535.5,286047002.3,N
1529505555.4,286047002.0,N
1529505575.2,286047002.6,N
1529505595.1,286047002.7,N
1529505596.0,286047002.7,N
1529505615.8,286047002.2,N
1529505635.6,286047002.4,N
1529505655.5,286047002.2,N
1529505675.3,286047001.5,N
1529505695.1,286047001.5,N
1529505715.9,286047002.2,N
1529505735.7,286047001.7,N
1529505755.6,286047002.4,N
1529505775.4,286046999.7,N
1529505795.2,286047002.7,Y
1529505815.1,286047000.8,P
1529505816.0,286047000.8,N
1529505835.8,286046998.3,P
1529505855.6,286046998.9,N
1529505875.5,286046999.3,N
1529505895.3,286046999.0,N
1529505915.2,286046998.7,N
1529505935.9,286046999.2,N
1529505955.7,286046999.4,N
1529505975.6,286046999.5,N
1529505995.4,286046997.0,N
1529506015.2,286046999.1,N
1529506035.1,286046996.9,N
1529506036.0,286046996.9,N
1529506055.8,286046999.0,N
1529506075.7,286046999.4,N
1529506095.5,286046999.1,N
1529506115.3,286046999.2,N
1529506135.2,286046998.9,N
1529506155.0,286046999.3,N
1529506155.9,286046999.3,N
1529506175.7,286046999.1,N
1529506195.6,286046999.6,N
1529506215.4,286046999.3,N
1529506235.3,286046996.9,N
1529506255.1,286046997.9,N
1529506275.8,286046996.8,N
1529506295.7,286046997.7,N
1529506315.5,286046996.8,N
1529506335.4,286046995.0,Y
1529506355.2,286046996.7,P
1529506375.0,286046996.8,P
1529506375.9,286046996.8,P
1529506395.8,286046996.6,Y
1529506415.6,286047000.0,P
1529506435.4,286047002.4,N
1529506455.3,286046999.7,N
1529506475.1,286046999.9,N
1529506495.9,286047000.4,N
1529506515.7,286047002.4,N
1529506535.5,286047000.1,N
1529506555.4,286046999.8,N
1529506575.2,286047000.6,N
1529506595.0,286046998.1,N
1529506596.0,286046998.1,N
1529506615.8,286047001.1,N
1529506635.6,286046998.1,N
1529506655.5,286046998.7,N
1529506675.3,286046998.1,N
1529506695.1,286047000.5,N
1529506715.9,286047000.6,N
1529506735.7,286047000.1,N
1529506755.5,286047001.9,N
1529506775.4,286047000.0,N
1529506795.2,286047001.1,N
